When you browse on this site, cookies collect data to enhance your experience and personalize the content and advertising you see.
Visit our Privacy Policy to learn more. By continuing to use the site, you agree to this use of cookies and data.

Hourly Weather Tirana

Today, 8 August, Saturday

Time Temperature Precipitation Wind Pressure Humidity
00:00 +23°C° 0 mm 2 mps 752 mmHg 76%
01:00 +21°C° 0 mm 2 mps 751 mmHg 76%
02:00 +21°C° 0 mm 2 mps 751 mmHg 75%
03:00 +21°C° 0 mm 2 mps 751 mmHg 74%
04:00 +21°C° 0 mm 2 mps 751 mmHg 73%
05:00 +23°C° 0 mm 2 mps 751 mmHg 69%
06:00 +24°C° 0 mm 2 mps 751 mmHg 65%
07:00 +25°C° 0 mm 3 mps 751 mmHg 60%
08:00 +27°C° 0 mm 3 mps 751 mmHg 55%
09:00 +28°C° 0 mm 3 mps 751 mmHg 50%
10:00 +30°C° 0 mm 3 mps 751 mmHg 45%
11:00 +32°C° 0 mm 4 mps 751 mmHg 41%
12:00 +33°C° 0 mm 4 mps 751 mmHg 37%
13:00 +35°C° 0 mm 4 mps 751 mmHg 33%
14:00 +35°C° 0 mm 5 mps 751 mmHg 34%
15:00 +34°C° 0 mm 6 mps 751 mmHg 34%
16:00 +34°C° 0 mm 7 mps 750 mmHg 35%
17:00 +32°C° 0 mm 6 mps 750 mmHg 40%
18:00 +30°C° 0 mm 6 mps 751 mmHg 46%
19:00 +28°C° 0 mm 5 mps 751 mmHg 51%
20:00 +27°C° 0 mm 4 mps 751 mmHg 53%
21:00 +26°C° 0 mm 3 mps 751 mmHg 55%
22:00 +26°C° 0 mm 3 mps 751 mmHg 57%
23:00 +25°C° 0 mm 3 mps 751 mmHg 57%

Tomorrow, 9 August, Sunday

Time Temperature Precipitation Wind Pressure Humidity
00:00 +25°C° 0 mm 3 mps 751 mmHg 58%
01:00 +24°C° 0 mm 3 mps 750 mmHg 59%
02:00 +24°C° 0 mm 3 mps 750 mmHg 60%
03:00 +23°C° 0 mm 4 mps 750 mmHg 60%
04:00 +23°C° 0 mm 4 mps 750 mmHg 61%
05:00 +25°C° 0 mm 3 mps 750 mmHg 57%
06:00 +27°C° 0 mm 3 mps 750 mmHg 52%
07:00 +28°C° 0 mm 3 mps 751 mmHg 48%
08:00 +30°C° 0 mm 3 mps 751 mmHg 42%
09:00 +34°C° 0 mm 3 mps 751 mmHg 36%
10:00 +36°C° 0 mm 3 mps 751 mmHg 29%
11:00 +36°C° 0 mm 3 mps 751 mmHg 28%
12:00 +37°C° 0 mm 4 mps 750 mmHg 26%
13:00 +38°C° 0 mm 4 mps 750 mmHg 25%
14:00 +37°C° 0 mm 5 mps 750 mmHg 27%
15:00 +36°C° 0 mm 6 mps 750 mmHg 30%
16:00 +36°C° 0 mm 7 mps 750 mmHg 33%
17:00 +34°C° 0 mm 7 mps 750 mmHg 38%
18:00 +32°C° 0 mm 6 mps 750 mmHg 44%
19:00 +29°C° 0 mm 6 mps 750 mmHg 49%
20:00 +28°C° 0 mm 5 mps 751 mmHg 52%
21:00 +27°C° 0 mm 4 mps 751 mmHg 55%
22:00 +27°C° 0 mm 3 mps 751 mmHg 57%
23:00 +26°C° 0 mm 3 mps 751 mmHg 57%

Day after tomorrow, 10 August, Monday

Time Temperature Precipitation Wind Pressure Humidity
00:00 +26°C° 0 mm 2 mps 751 mmHg 56%
01:00 +26°C° 0 mm 2 mps 751 mmHg 55%
02:00 +25°C° 0 mm 2 mps 751 mmHg 55%
03:00 +25°C° 0 mm 2 mps 751 mmHg 56%
04:00 +25°C° 0 mm 2 mps 751 mmHg 56%
05:00 +26°C° 0 mm 2 mps 751 mmHg 52%
06:00 +28°C° 0 mm 2 mps 751 mmHg 48%
07:00 +29°C° 0 mm 2 mps 751 mmHg 44%
08:00 +31°C° 0 mm 2 mps 751 mmHg 39%
09:00 +34°C° 0 mm 2 mps 751 mmHg 34%
10:00 +36°C° 0 mm 2 mps 751 mmHg 29%
11:00 +37°C° 0 mm 3 mps 751 mmHg 29%
12:00 +37°C° 0 mm 4 mps 751 mmHg 29%
13:00 +37°C° 0 mm 5 mps 751 mmHg 28%
14:00 +36°C° 0 mm 5 mps 751 mmHg 31%
15:00 +36°C° 0 mm 5 mps 751 mmHg 34%
16:00 +35°C° 0 mm 5 mps 751 mmHg 36%
17:00 +33°C° 0 mm 4 mps 751 mmHg 44%
18:00 +30°C° 0 mm 4 mps 751 mmHg 52%
19:00 +28°C° 0 mm 3 mps 751 mmHg 60%
20:00 +27°C° 0 mm 2 mps 752 mmHg 60%
21:00 +27°C° 0 mm 1 mps 752 mmHg 61%
22:00 +26°C° 0 mm 1 mps 752 mmHg 61%
23:00 +26°C° 0 mm 1 mps 752 mmHg 61%

11 August, Tuesday

Time Temperature Precipitation Wind Pressure Humidity
00:00 +26°C° 0 mm 1 mps 752 mmHg 61%
01:00 +25°C° 0 mm 1 mps 752 mmHg 61%
02:00 +25°C° 0 mm 1 mps 752 mmHg 62%
03:00 +25°C° 0 mm 1 mps 752 mmHg 63%
04:00 +24°C° 0 mm 1 mps 752 mmHg 64%
05:00 +26°C° 0 mm 1 mps 752 mmHg 59%
06:00 +27°C° 0 mm 1 mps 753 mmHg 54%
07:00 +29°C° 0 mm 1 mps 753 mmHg 49%
08:00 +31°C° 0 mm 1 mps 753 mmHg 43%
09:00 +34°C° 0 mm 2 mps 753 mmHg 38%
10:00 +36°C° 0 mm 2 mps 753 mmHg 33%
11:00 +36°C° 0 mm 3 mps 753 mmHg 33%
12:00 +36°C° 0 mm 4 mps 753 mmHg 33%
13:00 +37°C° 0 mm 5 mps 752 mmHg 33%
14:00 +36°C° 0 mm 5 mps 752 mmHg 36%
15:00 +35°C° 0 mm 5 mps 752 mmHg 38%
16:00 +34°C° 0 mm 5 mps 752 mmHg 41%
17:00 +32°C° 0 mm 4 mps 752 mmHg 47%
18:00 +29°C° 0 mm 3 mps 752 mmHg 52%
19:00 +27°C° 0 mm 2 mps 752 mmHg 58%
20:00 +27°C° 0 mm 1 mps 752 mmHg 60%
21:00 +26°C° 0 mm 1 mps 752 mmHg 61%
22:00 +24°C° 0 mm 0 mps 753 mmHg 63%
23:00 +25°C° 0 mm 1 mps 753 mmHg 65%

12 August, Wednesday

Time Temperature Precipitation Wind Pressure Humidity
00:00 +25°C° 0 mm 1 mps 752 mmHg 66%
01:00 +24°C° 0 mm 1 mps 752 mmHg 68%
02:00 +24°C° 0 mm 1 mps 752 mmHg 68%
03:00 +24°C° 0 mm 1 mps 752 mmHg 68%
04:00 +24°C° 0 mm 1 mps 752 mmHg 68%
05:00 +25°C° 0 mm 1 mps 752 mmHg 63%
06:00 +25°C° 0 mm 0 mps 752 mmHg 57%
07:00 +27°C° 0 mm 0 mps 752 mmHg 51%
08:00 +30°C° 0 mm 1 mps 752 mmHg 46%
09:00 +32°C° 0 mm 2 mps 752 mmHg 41%
10:00 +35°C° 0 mm 2 mps 752 mmHg 36%
11:00 +35°C° 0 mm 3 mps 752 mmHg 36%
12:00 +36°C° 0 mm 4 mps 752 mmHg 36%
13:00 +36°C° 0 mm 5 mps 752 mmHg 36%
14:00 +36°C° 0 mm 5 mps 752 mmHg 38%
15:00 +35°C° 0 mm 5 mps 751 mmHg 41%
16:00 +34°C° 0 mm 5 mps 751 mmHg 43%
17:00 +32°C° 0 mm 4 mps 751 mmHg 50%
18:00 +29°C° 0 mm 3 mps 752 mmHg 58%
19:00 +27°C° 0 mm 2 mps 752 mmHg 65%
20:00 +27°C° 0 mm 1 mps 752 mmHg 66%
21:00 +26°C° 0 mm 1 mps 752 mmHg 68%
22:00 +26°C° 0 mm 1 mps 752 mmHg 69%
23:00 +26°C° 0 mm 1 mps 752 mmHg 69%

13 August, Thursday

Time Temperature Precipitation Wind Pressure Humidity
00:00 +25°C° 0 mm 1 mps 752 mmHg 69%
01:00 +25°C° 0 mm 1 mps 752 mmHg 69%
02:00 +25°C° 0 mm 1 mps 752 mmHg 69%
03:00 +25°C° 0 mm 1 mps 752 mmHg 68%
04:00 +24°C° 0 mm 1 mps 752 mmHg 68%
05:00 +26°C° 0 mm 1 mps 752 mmHg 62%
06:00 +28°C° 0 mm 1 mps 752 mmHg 55%
07:00 +29°C° 0 mm 1 mps 752 mmHg 49%
08:00 +31°C° 0 mm 2 mps 752 mmHg 43%
09:00 +35°C° 0 mm 2 mps 752 mmHg 37%
10:00 +37°C° 0 mm 3 mps 752 mmHg 31%
11:00 +37°C° 0 mm 4 mps 752 mmHg 30%
12:00 +39°C° 0 mm 5 mps 752 mmHg 28%
13:00 +40°C° 0 mm 6 mps 752 mmHg 27%
14:00 +39°C° 0 mm 6 mps 752 mmHg 27%
15:00 +38°C° 0 mm 7 mps 752 mmHg 28%
16:00 +38°C° 0 mm 7 mps 752 mmHg 28%
17:00 +34°C° 0 mm 6 mps 752 mmHg 34%
18:00 +32°C° 0 mm 6 mps 752 mmHg 41%
19:00 +29°C° 0 mm 5 mps 752 mmHg 47%
20:00 +28°C° 0 mm 4 mps 752 mmHg 49%
21:00 +27°C° 0 mm 4 mps 753 mmHg 52%
22:00 +27°C° 0 mm 3 mps 753 mmHg 55%
23:00 +26°C° 0 mm 3 mps 753 mmHg 53%
Show more